Probability
3 3 4 6 6 4 2 0 0 0 0 0 2 5 8 10 12 12 10 5 1 0 0 0 0 0 0 0 0 0 0 0 0 0 0 0 0 0 0 0 0 0 0
4 4 6 8 9 7 4 2 1 1 0 0 2 4 6 8 10 9 7 3 1 0 0 0 0 0 0 0 0 0 0 0 0 0 0 0 0 0 0 0 0 0 0
5 6 9 12 13 10 6 4 3 3 1 0 1 3 4 6 6 5 4 3 1 0 0 0 0 0 0 0 0 1 1 1 1 1 0 0 0 0 0 0 0 0 0
9 10 12 14 16 14 10 8 7 6 5 3 2 3 3 3 4 3 2 2 2 0 0 0 0 0 0 0 0 1 2 2 2 1 0 0 0 0 0 0 0 0 0
11 13 14 15 18 17 15 12 11 10 8 7 6 4 3 2 3 3 3 2 1 0 0 0 0 0 0 0 0 1 3 3 1 0 0 0 0 0 0 0 0 0 0
9 12 16 19 20 19 18 16 14 12 11 10 9 7 5 3 3 4 4 3 1 1 1 1 1 0 0 1 1 2 3 2 1 0 0 0 0 0 0 0 0 0 0
7 9 16 23 24 22 21 19 17 14 13 12 10 10 8 5 4 4 4 4 3 2 2 2 1 1 1 2 3 3 3 1 0 0 0 0 0 0 0 0 0 0 0
10 11 15 21 24 26 27 25 21 18 16 13 11 11 9 7 6 5 5 4 3 2 2 1 1 1 1 2 3 4 3 1 0 0 0 0 0 0 0 1 0 0 0
11 12 11 12 15 21 25 25 23 19 15 12 11 11 10 9 8 6 5 4 2 1 1 0 0 0 1 2 3 4 4 2 1 0 0 0 0 0 0 1 1 0 0
9 8 6 4 5 8 12 17 19 16 13 11 11 11 10 7 6 5 4 3 1 0 0 0 0 0 0 1 2 3 3 2 1 0 0 1 1 1 1 2 2 2 1
8 6 3 3 3 4 6 10 12 12 11 9 8 9 7 4 3 4 5 5 3 2 2 2 1 1 0 0 1 1 1 1 0 0 1 3 3 3 2 3 3 3 3
8 7 5 4 6 8 8 9 10 10 8 5 4 4 3 1 1 3 6 7 6 5 4 4 4 3 2 1 1 0 0 0 0 0 3 5 6 4 3 2 3 3 2
11 10 8 7 8 8 7 7 8 8 6 3 1 1 1 1 1 2 3 5 5 4 3 3 4 4 3 2 1 0 1 2 1 1 4 7 6 5 4 4 4 2 1
17 14 10 8 7 7 6 6 6 6 6 4 2 1 2 2 1 1 1 1 2 2 2 1 2 3 3 2 1 1 2 2 2 1 3 6 6 5 5 6 6 4 1
23 18 15 12 11 11 11 9 8 8 7 6 5 4 3 3 1 1 0 0 0 1 1 1 1 1 2 2 2 2 3 3 3 2 2 4 7 7 6 7 7 5 3
26 23 21 18 15 15 14 13 12 10 9 8 7 6 5 5 4 2 0 0 0 0 0 0 0 0 1 1 2 3 3 4 4 2 1 3 7 8 7 7 7 6 4
24 23 22 19 15 12 11 11 11 10 10 9 9 9 8 7 7 4 1 0 1 1 0 0 0 0 0 0 1 2 3 4 3 2 1 2 5 6 6 7 8 7 6
18 17 17 16 11 7 6 6 8 10 10 10 11 11 10 8 8 6 3 2 2 2 1 0 0 0 0 0 0 1 1 2 2 1 1 2 2 2 3 5 8 8 7
12 13 13 10 7 4 3 4 6 9 11 11 11 11 9 8 7 6 4 3 3 2 1 0 0 0 0 0 0 0 0 1 1 0 1 1 1 0 1 2 5 5 5
10 11 9 6 3 3 3 5 6 9 10 9 8 8 8 7 6 5 3 3 3 2 1 1 1 1 0 0 0 0 0 0 0 0 0 0 0 0 0 0 1 2 2
9 8 6 3 1 1 3 5 5 6 7 5 5 5 5 5 5 4 3 3 3 2 2 2 2 2 1 0 0 0 0 0 0 0 0 0 0 0 0 0 0 0 1
7 6 4 2 0 0 2 3 3 3 4 3 3 2 2 2 3 2 1 1 2 2 2 2 3 2 1 0 0 0 0 0 0 0 0 0 0 0 0 0 0 0 1
7 6 4 3 1 0 0 1 1 1 2 2 1 1 0 0 1 1 0 0 0 0 1 1 1 1 1 0 0 0 0 0 0 0 0 0 0 0 0 0 0 0 1
7 6 4 3 2 1 0 0 0 0 1 1 0 0 0 0 0 0 0 0 0 0 0 0 0 0 0 0 0 0 0 0 0 0 0 0 0 0 0 0 0 0 0
8 6 4 3 3 1 0 0 0 0 0 1 1 1 0 0 0 0 0 0 0 0 0 0 0 0 0 0 0 0 0 0 0 0 0 0 0 0 0 0 0 0 0
9 7 5 4 3 2 1 0 0 0 1 2 3 2 1 0 0 0 0 0 0 0 0 0 0 0 0 0 0 0 0 0 0 0 0 0 0 0 0 0 0 0 0
Wind_Speed
6 7 13 14 15 15 15 15 15 15 15 15 15 15 15 15 14 14 13 13 12 12 11 11 10 10 10 11 11 11 12 12 12 12 13 12 12 12 13 13 12 9 13
10 9 14 14 15 15 15 14 14 14 14 14 14 14 14 13 13 12 12 11 11 10 10 10 10 10 10 10 10 10 10 10 10 10 11 11 11 11 12 12 12 8 12
12 9 12 14 15 15 14 14 14 14 13 13 13 13 12 12 11 11 11 10 9 9 9 9 9 9 8 8 8 8 8 7 7 8 8 4 7 11 12 13 12 12 11
12 8 11 15 15 15 14 14 14 13 13 12 12 12 11 11 10 9 9 9 9 8 8 8 7 7 7 6 6 6 5 5 4 4 3 2 4 10 11 12 12 11 11
11 8 11 16 15 15 14 14 14 13 13 12 11 11 10 10 9 8 8 8 7 7 7 6 6 5 5 4 4 3 3 3 2 1 1 2 2 9 10 10 11 11 10
10 8 11 15 15 14 14 14 13 13 12 12 11 10 9 8 7 7 6 6 6 5 5 5 4 4 3 3 2 2 3 3 2 1 1 3 3 8 10 10 10 10 10
9 7 10 14 14 14 14 13 13 12 12 11 10 9 8 7 6 6 5 5 5 4 4 3 3 2 2 1 2 3 3 4 2 1 2 3 5 9 11 11 10 10 10
11 8 8 14 15 14 14 13 12 11 11 10 9 8 7 6 5 5 4 4 3 3 3 2 1 1 0 2 3 3 4 4 3 2 1 3 6 10 11 11 10 10 10
10 8 6 7 10 12 13 12 11 11 10 9 8 7 6 5 5 4 4 4 3 2 2 2 2 2 2 2 4 4 4 4 2 0 2 2 7 9 10 11 11 10 10
8 7 6 5 5 6 7 11 11 10 9 8 7 6 5 4 3 3 3 4 4 3 3 3 3 3 3 3 4 4 4 3 1 0 1 4 9 10 10 10 10 10 10
7 5 6 5 5 5 5 7 8 9 8 6 5 5 4 1 0 1 2 4 4 4 4 4 4 3 3 3 4 4 3 0 0 0 1 4 8 10 10 9 10 10 10
6 5 4 5 5 4 4 4 2 3 3 3 2 2 1 1 1 1 2 3 3 3 4 5 4 3 3 2 3 3 1 1 1 1 2 5 7 8 9 10 10 10 10
7 6 4 5 5 4 3 3 2 1 2 2 2 2 1 1 1 1 1 2 2 2 2 3 2 1 2 2 2 1 1 1 0 1 2 5 6 8 9 10 10 10 10
7 6 4 4 4 4 3 2 2 2 1 1 1 2 1 1 1 1 1 1 1 1 1 1 1 2 2 2 2 1 1 1 1 1 2 4 5 5 7 8 9 9 9
6 5 4 4 4 4 3 2 2 2 2 2 1 1 1 1 0 0 1 1 1 1 1 1 1 1 1 2 1 1 0 1 1 1 1 3 4 4 4 6 7 8 8
6 5 4 4 4 4 3 2 2 2 2 2 1 1 1 1 1 0 1 1 1 1 1 1 1 1 1 1 1 0 1 1 1 1 1 2 3 2 2 2 5 6 6
6 5 5 5 4 4 4 3 2 2 3 2 1 2 2 1 1 1 0 1 1 1 1 1 1 1 0 1 2 2 1 1 1 1 1 1 1 1 1 1 2 2 3
6 5 4 5 4 4 3 3 2 2 3 2 2 2 2 2 1 1 0 1 1 1 1 0 0 1 1 1 1 2 1 1 1 1 1 1 0 0 1 1 1 1 1
6 5 5 5 4 3 3 3 3 3 3 2 2 2 2 2 2 1 1 1 1 1 1 1 0 0 0 1 1 1 1 1 1 1 2 2 1 1 1 2 3 2 2
6 6 5 5 4 3 2 3 3 4 3 3 2 2 3 2 3 2 2 2 2 2 1 1 1 1 0 0 1 2 2 1 2 2 2 2 2 2 2 3 2 3 4
6 6 5 4 3 3 2 2 2 2 2 2 2 3 3 3 3 3 2 2 2 2 2 2 1 1 1 1 2 2 2 3 3 2 2 2 3 3 3 4 3 2 2
6 5 4 4 3 2 2 1 1 2 2 1 2 3 4 4 4 3 3 2 2 2 3 2 1 1 1 0 1 1 1 2 3 4 3 3 3 3 4 4 4 4 3
5 5 4 4 3 3 2 2 3 3 2 2 3 2 3 3 3 3 3 3 3 3 2 2 1 1 0 1 0 1 2 1 0 2 3 3 3 4 4 4 4 4 4
5 5 4 4 4 3 3 3 4 3 2 1 1 1 2 4 4 4 4 4 3 3 2 2 2 1 1 0 1 1 1 2 2 1 1 3 4 4 4 3 4 4 4
5 5 4 5 4 4 4 4 4 3 2 1 2 3 3 3 4 4 4 3 3 3 3 3 2 2 0 0 0 1 1 1 1 2 1 1 1 2 2 3 3 3 4
5 5 5 5 4 4 4 4 4 4 4 4 3 3 2 2 3 4 4 3 3 3 3 2 2 2 1 0 0 0 0 0 1 1 2 1 1 1 2 2 2 2 3
Wind_Direction
136 142 134 127 123 119 115 110 106 103 99 96 93 91 90 89 90 91 92 93 95 95 94 93 91 90 90 92 94 97 100 104 109 113 114 111 110 114 116 114 113 110 113
139 141 134 129 126 123 121 117 112 109 106 102 98 95 93 92 91 92 93 94 95 95 95 93 93 92 91 91 93 97 101 105 110 113 112 110 110 113 119 118 116 119 119
129 132 131 128 126 126 124 120 118 114 112 108 104 101 98 96 95 96 97 97 97 96 95 93 92 91 89 89 89 93 98 101 104 106 102 95 107 112 115 120 120 121 121
126 127 130 128 127 127 127 125 123 120 118 114 110 107 104 101 99 100 101 101 100 98 97 97 96 94 91 88 86 86 88 90 94 102 101 120 123 123 124 126 127 126 125
120 123 131 129 128 129 129 128 127 125 123 120 116 112 109 106 104 103 103 103 104 103 101 100 98 95 91 87 82 74 67 55 49 83 129 142 139 139 135 136 135 134 133
117 121 129 129 129 129 130 130 129 129 128 126 123 120 116 113 112 110 109 108 108 108 108 106 102 95 88 79 62 42 28 8 5 51 132 151 157 153 148 145 145 142 143
116 116 126 129 130 131 132 132 132 132 131 130 129 127 124 121 119 120 120 119 118 118 115 111 108 98 74 35 9 2 353 353 2 94 150 162 171 165 158 154 153 153 151
122 118 122 128 130 132 133 133 133 132 131 130 130 131 133 132 132 135 137 137 139 140 140 136 133 137 22 331 328 332 335 335 13 37 140 168 184 175 167 165 162 161 160
119 117 117 127 130 133 134 134 133 133 132 132 132 133 137 142 149 155 156 159 166 175 182 189 212 247 274 298 311 319 321 326 19 89 169 181 190 178 174 171 170 169 168
116 120 123 120 123 127 132 137 137 136 135 135 133 135 140 146 162 177 182 192 197 207 218 227 242 260 278 288 299 305 312 329 20 166 180 197 194 184 179 180 178 178 176
118 121 127 125 126 129 134 140 139 140 140 135 132 131 127 111 128 218 240 225 222 227 236 242 248 263 273 281 288 295 305 327 311 238 209 209 198 191 185 186 185 182 184
128 127 121 125 129 132 138 124 124 130 123 114 110 113 108 100 359 358 298 267 249 247 258 257 254 263 267 271 281 281 268 264 236 210 215 217 206 198 194 190 189 192 193
129 126 122 126 125 125 114 125 117 112 119 118 119 118 104 84 25 14 0 309 295 284 287 296 294 278 260 248 248 235 224 232 164 223 231 225 220 211 201 194 194 198 198
118 122 119 122 121 122 119 124 132 132 135 137 135 121 114 87 45 10 341 309 314 298 281 285 289 277 271 260 238 226 206 171 163 208 235 219 212 215 211 203 201 204 203
115 116 118 120 123 123 118 118 116 131 136 132 108 104 111 100 54 332 311 336 326 303 281 298 298 290 285 290 287 275 215 162 158 194 243 206 193 204 213 214 207 206 206
115 119 116 102 106 107 103 97 99 102 101 91 77 70 83 80 52 18 335 338 331 314 293 279 284 284 304 320 328 308 184 153 145 175 218 236 216 194 210 228 216 217 215
122 110 107 106 93 96 97 100 97 99 98 86 75 65 58 58 58 55 316 334 331 329 333 337 356 342 315 347 353 349 5 103 144 164 190 225 266 255 245 232 221 222 226
112 104 95 101 94 91 94 90 91 94 96 88 74 56 47 49 56 74 49 335 317 346 1 345 24 8 358 16 2 341 358 34 86 136 137 127 178 306 338 51 76 50 328
115 107 96 91 92 90 82 81 89 87 84 79 71 65 45 38 39 51 47 6 3 21 8 306 97 145 82 41 8 354 15 27 25 58 94 106 115 93 58 34 38 35 30
105 96 89 79 75 79 77 72 68 66 67 63 60 58 56 46 44 49 44 25 23 31 23 28 36 44 100 67 50 42 23 20 33 40 67 80 76 70 60 47 27 15 25
98 94 88 82 65 74 78 80 78 70 62 52 50 51 48 42 41 45 42 32 27 33 27 40 55 50 23 47 64 34 17 27 42 34 44 67 64 59 58 50 41 27 9
113 103 92 87 75 68 78 100 114 112 88 75 49 37 36 39 36 48 41 29 26 31 36 38 50 48 312 30 107 115 10 4 29 29 33 51 52 46 49 48 44 37 19
111 107 96 79 67 58 65 82 81 69 57 40 35 31 19 34 39 42 44 44 36 40 36 30 40 67 313 310 76 143 161 203 126 20 32 41 48 51 44 37 41 33 25
117 109 98 84 70 57 63 92 102 110 108 98 75 53 30 35 38 41 45 45 39 38 32 19 38 26 113 315 326 350 192 170 157 126 23 34 45 51 45 39 31 26 20
118 113 102 86 69 52 54 78 89 87 97 92 72 61 38 21 25 31 36 37 33 27 24 22 12 4 28 192 265 334 9 34 135 148 162 132 50 32 37 35 29 21 17
116 109 102 91 73 59 60 69 87 93 90 86 70 56 34 16 11 16 29 30 26 22 18 12 10 5 357 4 43 118 157 171 172 145 154 157 135 41 26 29 26 15 15